Hourly Weather Al Hudaydah

Today, 25 February, Thursday

Time Temperature Precipitation Wind Pressure Humidity
00:00 +27°C° 0 mm 3 mps 756 mmHg 80%
01:00 +27°C° 0 mm 3 mps 755 mmHg 80%
02:00 +27°C° 0 mm 3 mps 755 mmHg 81%
03:00 +27°C° 0 mm 3 mps 755 mmHg 81%
04:00 +27°C° 0.1 mm 3 mps 755 mmHg 83%
05:00 +27°C° 0.1 mm 2 mps 755 mmHg 84%
06:00 +26°C° 0.1 mm 2 mps 755 mmHg 85%
07:00 +27°C° 0.1 mm 3 mps 756 mmHg 80%
08:00 +28°C° 0.1 mm 3 mps 756 mmHg 76%
09:00 +29°C° 0.1 mm 4 mps 756 mmHg 71%
10:00 +30°C° 0 mm 4 mps 756 mmHg 68%
11:00 +30°C° 0 mm 5 mps 756 mmHg 64%
12:00 +32°C° 0 mm 5 mps 755 mmHg 61%
13:00 +32°C° 0.1 mm 5 mps 755 mmHg 61%
14:00 +32°C° 0.1 mm 6 mps 754 mmHg 62%
15:00 +32°C° 0.1 mm 6 mps 754 mmHg 62%
16:00 +30°C° 0 mm 6 mps 754 mmHg 63%
17:00 +29°C° 0 mm 6 mps 754 mmHg 64%
18:00 +29°C° 0 mm 6 mps 754 mmHg 66%
19:00 +28°C° 0 mm 5 mps 755 mmHg 67%
20:00 +28°C° 0 mm 5 mps 755 mmHg 68%
21:00 +28°C° 0 mm 5 mps 755 mmHg 70%
22:00 +27°C° 0 mm 4 mps 755 mmHg 72%
23:00 +27°C° 0 mm 4 mps 755 mmHg 74%

Tomorrow, 26 February, Friday

Time Temperature Precipitation Wind Pressure Humidity
00:00 +27°C° 0 mm 4 mps 755 mmHg 75%
01:00 +26°C° 0 mm 4 mps 755 mmHg 77%
02:00 +26°C° 0 mm 4 mps 755 mmHg 78%
03:00 +26°C° 0 mm 3 mps 754 mmHg 79%
04:00 +26°C° 0 mm 3 mps 755 mmHg 80%
05:00 +26°C° 0 mm 2 mps 755 mmHg 80%
06:00 +26°C° 0 mm 2 mps 755 mmHg 81%
07:00 +26°C° 0 mm 2 mps 755 mmHg 77%
08:00 +27°C° 0 mm 2 mps 755 mmHg 74%
09:00 +28°C° 0 mm 2 mps 755 mmHg 70%
10:00 +28°C° 0 mm 3 mps 755 mmHg 68%
11:00 +29°C° 0 mm 4 mps 755 mmHg 65%
12:00 +30°C° 0 mm 4 mps 755 mmHg 62%
13:00 +30°C° 0 mm 4 mps 754 mmHg 62%
14:00 +30°C° 0 mm 5 mps 753 mmHg 62%
15:00 +30°C° 0 mm 5 mps 753 mmHg 62%
16:00 +29°C° 0 mm 4 mps 753 mmHg 64%
17:00 +29°C° 0 mm 3 mps 753 mmHg 66%
18:00 +28°C° 0 mm 3 mps 754 mmHg 67%
19:00 +28°C° 0 mm 3 mps 754 mmHg 69%
20:00 +28°C° 0 mm 3 mps 754 mmHg 70%
21:00 +27°C° 0 mm 3 mps 755 mmHg 72%
22:00 +27°C° 0 mm 3 mps 754 mmHg 73%
23:00 +27°C° 0 mm 3 mps 754 mmHg 74%

Day after tomorrow, 27 February, Saturday

Time Temperature Precipitation Wind Pressure Humidity
00:00 +27°C° 0 mm 4 mps 754 mmHg 75%
01:00 +26°C° 0 mm 3 mps 754 mmHg 76%
02:00 +26°C° 0 mm 2 mps 753 mmHg 77%
03:00 +26°C° 0 mm 2 mps 753 mmHg 78%
04:00 +26°C° 0 mm 1 mps 753 mmHg 79%
05:00 +26°C° 0 mm 1 mps 753 mmHg 79%
06:00 +24°C° 0 mm 0 mps 753 mmHg 80%
07:00 +27°C° 0 mm 1 mps 754 mmHg 76%
08:00 +27°C° 0 mm 1 mps 754 mmHg 72%
09:00 +28°C° 0 mm 1 mps 755 mmHg 67%
10:00 +29°C° 0 mm 2 mps 754 mmHg 64%
11:00 +30°C° 0 mm 3 mps 754 mmHg 60%
12:00 +32°C° 0 mm 4 mps 754 mmHg 56%
13:00 +32°C° 0 mm 4 mps 753 mmHg 57%
14:00 +32°C° 0 mm 4 mps 753 mmHg 58%
15:00 +32°C° 0 mm 4 mps 752 mmHg 59%
16:00 +30°C° 0 mm 4 mps 752 mmHg 62%
17:00 +30°C° 0 mm 3 mps 752 mmHg 65%
18:00 +29°C° 0 mm 3 mps 752 mmHg 68%
19:00 +29°C° 0 mm 2 mps 753 mmHg 69%
20:00 +29°C° 0 mm 2 mps 753 mmHg 70%
21:00 +29°C° 0 mm 2 mps 754 mmHg 71%
22:00 +28°C° 0 mm 2 mps 754 mmHg 72%
23:00 +28°C° 0 mm 3 mps 754 mmHg 73%

28 February, Sunday

Time Temperature Precipitation Wind Pressure Humidity
00:00 +28°C° 0 mm 3 mps 753 mmHg 74%
01:00 +27°C° 0 mm 2 mps 753 mmHg 75%
02:00 +27°C° 0 mm 2 mps 753 mmHg 76%
03:00 +27°C° 0 mm 2 mps 752 mmHg 77%
04:00 +27°C° 0 mm 2 mps 753 mmHg 79%
05:00 +27°C° 0 mm 2 mps 753 mmHg 80%
06:00 +26°C° 0 mm 2 mps 753 mmHg 81%
07:00 +27°C° 0 mm 2 mps 754 mmHg 80%
08:00 +27°C° 0 mm 2 mps 754 mmHg 79%
09:00 +27°C° 0 mm 2 mps 755 mmHg 78%
10:00 +28°C° 0.1 mm 2 mps 754 mmHg 75%
11:00 +28°C° 0.1 mm 2 mps 754 mmHg 73%
12:00 +29°C° 0.1 mm 3 mps 754 mmHg 70%
13:00 +29°C° 0 mm 3 mps 753 mmHg 68%
14:00 +30°C° 0 mm 3 mps 753 mmHg 65%
15:00 +30°C° 0 mm 3 mps 752 mmHg 63%
16:00 +30°C° 0 mm 3 mps 753 mmHg 65%
17:00 +30°C° 0 mm 4 mps 753 mmHg 66%
18:00 +29°C° 0 mm 4 mps 753 mmHg 68%
19:00 +29°C° 0 mm 4 mps 753 mmHg 70%
20:00 +29°C° 0 mm 4 mps 754 mmHg 72%
21:00 +28°C° 0 mm 5 mps 754 mmHg 74%
22:00 +28°C° 0 mm 4 mps 754 mmHg 75%
23:00 +28°C° 0 mm 4 mps 754 mmHg 76%

1 March, Monday

Time Temperature Precipitation Wind Pressure Humidity
00:00 +28°C° 0 mm 4 mps 754 mmHg 77%
01:00 +27°C° 0 mm 4 mps 754 mmHg 77%
02:00 +27°C° 0 mm 3 mps 753 mmHg 78%
03:00 +27°C° 0 mm 3 mps 753 mmHg 79%
04:00 +27°C° 0 mm 2 mps 753 mmHg 81%
05:00 +26°C° 0 mm 2 mps 754 mmHg 83%
06:00 +26°C° 0 mm 1 mps 754 mmHg 85%
07:00 +27°C° 0 mm 1 mps 755 mmHg 81%
08:00 +28°C° 0 mm 1 mps 755 mmHg 77%
09:00 +28°C° 0 mm 1 mps 756 mmHg 73%
10:00 +29°C° 0.1 mm 2 mps 755 mmHg 68%
11:00 +30°C° 0.1 mm 3 mps 755 mmHg 64%
12:00 +32°C° 0.1 mm 4 mps 755 mmHg 59%
13:00 +32°C° 0 mm 4 mps 754 mmHg 59%
14:00 +32°C° 0 mm 5 mps 754 mmHg 59%
15:00 +32°C° 0 mm 5 mps 753 mmHg 59%
16:00 +32°C° 0 mm 5 mps 754 mmHg 61%
17:00 +30°C° 0 mm 4 mps 754 mmHg 64%
18:00 +29°C° 0 mm 4 mps 754 mmHg 66%
19:00 +29°C° 0 mm 4 mps 755 mmHg 68%
20:00 +29°C° 0 mm 4 mps 755 mmHg 69%
21:00 +28°C° 0 mm 4 mps 755 mmHg 71%
22:00 +28°C° 0 mm 4 mps 755 mmHg 73%
23:00 +28°C° 0 mm 4 mps 755 mmHg 74%

2 March, Tuesday

Time Temperature Precipitation Wind Pressure Humidity
00:00 +28°C° 0 mm 4 mps 755 mmHg 76%
01:00 +27°C° 0 mm 4 mps 755 mmHg 77%
02:00 +27°C° 0 mm 4 mps 755 mmHg 78%
03:00 +27°C° 0 mm 4 mps 754 mmHg 80%
04:00 +27°C° 0 mm 4 mps 755 mmHg 79%
05:00 +27°C° 0 mm 4 mps 755 mmHg 79%
06:00 +27°C° 0 mm 3 mps 755 mmHg 79%
07:00 +27°C° 0 mm 3 mps 755 mmHg 75%
08:00 +28°C° 0 mm 3 mps 756 mmHg 71%
09:00 +29°C° 0 mm 3 mps 756 mmHg 67%
10:00 +29°C° 0 mm 3 mps 756 mmHg 64%
11:00 +30°C° 0 mm 4 mps 756 mmHg 61%
12:00 +32°C° 0 mm 4 mps 756 mmHg 58%
13:00 +32°C° 0 mm 5 mps 755 mmHg 58%
14:00 +32°C° 0 mm 5 mps 755 mmHg 59%
15:00 +32°C° 0 mm 5 mps 754 mmHg 59%
16:00 +30°C° 0 mm 5 mps 755 mmHg 60%
17:00 +30°C° 0 mm 4 mps 755 mmHg 62%
18:00 +29°C° 0 mm 4 mps 755 mmHg 63%
19:00 +29°C° 0 mm 4 mps 755 mmHg 64%
20:00 +28°C° 0 mm 3 mps 756 mmHg 65%
21:00 +28°C° 0 mm 3 mps 756 mmHg 67%
22:00 +28°C° 0 mm 3 mps 756 mmHg 67%
23:00 +28°C° 0 mm 3 mps 756 mmHg 68%
Show more